CW6245 Weather Reports


time (UTC)temp
C
wind
direction
speed
KPH
gust
KPH
rain 1hr
cm
rain 24hr
cm
rain mn
cm
humidity
%
barometer
mb
20200229053758 3 192 19.3 30.6 0.00 0.00 0.00 19 731.1
20200229053258 3 199 17.7 27.4 0.00 0.00 0.00 19 731.1
20200229052758 3 200 16.1 25.7 0.00 0.00 0.00 18 731.1
20200229052258 3 200 16.1 27.4 0.00 0.00 0.00 20 731.1
20200229051758 3 197 19.3 29.0 0.00 0.00 0.00 20 731.1
20200229051258 3 199 17.7 25.7 0.00 0.00 0.00 18 731.1
20200229050758 3 194 17.7 32.2 0.00 0.00 0.00 20 731.1
20200229050258 3 190 22.5 32.2 0.00 0.00 0.00 19 731.1
20200229045758 3 190 22.5 33.8 0.00 0.00 0.00 21 731.1
20200229045259 3 191 22.5 32.2 0.00 0.00 0.00 20 731.1
20200229044758 3 188 24.1 33.8 0.00 0.00 0.00 20 731.1
20200229044258 3 193 22.5 33.8 0.00 0.00 0.00 19 731.1
20200229043758 3 189 24.1 32.2 0.00 0.00 0.00 18 731.1
20200229043258 3 190 24.1 35.4 0.00 0.00 0.00 17 731.1
20200229042758 3 185 20.9 30.6 0.00 0.00 0.00 18 731.1
20200229042303 3 188 20.9 29.0 0.00 0.00 0.00 19 731.1
20200229041758 3 188 22.5 29.0 0.00 0.00 0.00 18 731.1
20200229041303 3 185 20.9 27.4 0.00 0.00 0.00 19 731.1
20200229040804 3 188 17.7 30.6 0.00 0.00 0.00 20 731.1
20200229040258 3 188 16.1 22.5 0.00 0.00 0.00 22 731.4
20200229035758 3 187 16.1 25.7 0.00 0.00 0.00 24 731.1
20200229035258 3 188 16.1 22.5 0.00 0.00 0.00 22 731.4
20200229034759 3 190 17.7 22.5 0.00 0.00 0.00 23 731.4
20200229034258 3 196 12.9 20.9 0.00 0.00 0.00 22 731.4
20200229033758 3 190 16.1 20.9 0.00 0.00 0.00 23 731.4
20200229033258 3 189 17.7 20.9 0.00 0.00 0.00 23 731.4
20200229032758 3 189 16.1 19.3 0.00 0.00 0.00 23 731.4
20200229032258 3 189 14.5 19.3 0.00 0.00 0.00 25 731.1
20200229031758 3 190 16.1 19.3 0.00 0.00 0.00 27 731.4
20200229031258 3 191 14.5 20.9 0.00 0.00 0.00 26 731.4
20200229030758 3 189 16.1 24.1 0.00 0.00 0.00 27 731.4
20200229030258 3 190 17.7 24.1 0.00 0.00 0.00 29 731.1
20200229025758 3 190 17.7 20.9 0.00 0.00 0.00 30 731.1
20200229025258 3 190 14.5 20.9 0.00 0.00 0.00 32 731.1
20200229024758 3 191 14.5 19.3 0.00 0.00 0.00 34 731.1
20200229024258 3 189 16.1 19.3 0.00 0.00 0.00 34 731.1
20200229023758 2 189 14.5 19.3 0.00 0.00 0.00 35 731.1
20200229023258 2 191 12.9 16.1 0.00 0.00 0.00 39 731.1
20200229022758 3 197 9.7 17.7 0.00 0.00 0.00 39 731.1
20200229022258 3 201 8.0 16.1 0.00 0.00 0.00 38 731.1
20200229021758 3 198 9.7 16.1 0.00 0.00 0.00 37 731.4
20200229021258 3 204 8.0 17.7 0.00 0.00 0.00 36 731.4
20200229020758 3 203 6.4 16.1 0.00 0.00 0.00 36 731.4
20200229020258 3 204 6.4 12.9 0.00 0.00 0.00 35 731.1
20200229015759 3 203 6.4 12.9 0.00 0.00 0.00 35 731.1
20200229015258 3 200 6.4 11.3 0.00 0.00 0.00 34 731.1
20200229014758 3 204 6.4 11.3 0.00 0.00 0.00 34 731.1
20200229014258 3 203 4.8 9.7 0.00 0.00 0.00 34 731.1
20200229013759 3 211 3.2 9.7 0.00 0.00 0.00 34 731.1
20200229013258 4 211 3.2 9.7 0.00 0.00 0.00 33 731.1
20200229012758 4 219 3.2 6.4 0.00 0.00 0.00 32 731.1
20200229012258 4 220 1.6 6.4 0.00 0.00 0.00 31 731.1
20200229011758 5 230 1.6 9.7 0.00 0.00 0.00 30 731.1
20200229011258 5 206 3.2 8.0 0.00 0.00 0.00 29 731.4
20200229010758 5 207 3.2 9.7 0.00 0.00 0.00 27 731.4
20200229010258 6 208 3.2 9.7 0.00 0.00 0.00 24 731.4
20200229005758 6 214 3.2 11.3 0.00 0.00 0.00 21 731.4
20200229005258 7 211 4.8 11.3 0.00 0.00 0.00 22 731.4
20200229004758 7 227 1.6 11.3 0.00 0.00 0.00 22 731.4
20200229004258 7 221 3.2 6.4 0.00 0.00 0.00 21 731.4
20200229003758 7 225 1.6 14.5 0.00 0.00 0.00 20 731.4
20200229003258 7 233 3.2 12.9 0.00 0.00 0.00 20 731.4
20200229002758 7 231 0.0 12.9 0.00 0.00 0.00 21 731.4
20200229002303 7 219 3.2 9.7 0.00 0.00 0.00 21 731.4
20200229001758 7 228 3.2 16.1 0.00 0.00 0.00 20 731.4
20200229001258 7 201 8.0 16.1 0.00 0.00 0.00 16 731.4
20200229000801 7 204 8.0 16.1 0.00 0.00 0.00 14 731.4
20200229000258 7 189 8.0 14.5 0.00 0.00 0.00 13 731.4
20200228235758 7 205 6.4 12.9 0.00 0.00 0.00 14 731.4
20200228235258 7 206 4.8 12.9 0.00 0.00 0.00 14 731.4
20200228234758 7 207 3.2 12.9 0.00 0.00 0.00 16 731.4
20200228234258 7 214 6.4 14.5 0.00 0.00 0.00 14 731.4
20200228233758 7 201 8.0 17.7 0.00 0.00 0.00 14 731.8
20200228233258 8 199 9.7 19.3 0.00 0.00 0.00 17 731.8
20200228232758 8 197 8.0 14.5 0.00 0.00 0.00 15 731.8
20200228232258 8 208 6.4 16.1 0.00 0.00 0.00 17 731.4
20200228231803 8 206 6.4 14.5 0.00 0.00 0.00 16 731.8
20200228231258 8 213 6.4 16.1 0.00 0.00 0.00 16 731.8
20200228230758 8 201 8.0 16.1 0.00 0.00 0.00 16 731.8
20200228230258 7 197 9.7 19.3 0.00 0.00 0.00 18 731.4
20200228225758 8 206 8.0 19.3 0.00 0.00 0.00 16 731.8
20200228225258 8 213 6.4 22.5 0.00 0.00 0.00 14 731.8
20200228224758 9 202 6.4 16.1 0.00 0.00 0.00 16 731.8
20200228224258 9 233 3.2 8.0 0.00 0.00 0.00 17 731.8
20200228223758 9 238 1.6 9.7 0.00 0.00 0.00 18 731.8
20200228223258 8 213 4.8 11.3 0.00 0.00 0.00 18 731.8
20200228222758 8 193 9.7 16.1 0.00 0.00 0.00 17 731.8
20200228222258 8 221 1.6 19.3 0.00 0.00 0.00 18 731.8
20200228221758 8 203 11.3 19.3 0.00 0.00 0.00 15 731.8
20200228221258 8 205 4.8 22.5 0.00 0.00 0.00 16 731.8
20200228220758 8 192 6.4 19.3 0.00 0.00 0.00 16 731.8
20200228220258 8 197 8.0 24.1 0.00 0.00 0.00 16 731.8
20200228215758 8 241 6.4 22.5 0.00 0.00 0.00 14 731.8
20200228215258 8 231 1.6 19.3 0.00 0.00 0.00 15 731.8
20200228214758 8 206 9.7 22.5 0.00 0.00 0.00 12 731.8
20200228214258 8 203 8.0 20.9 0.00 0.00 0.00 12 731.8
20200228213758 8 199 12.9 25.7 0.00 0.00 0.00 12 731.8
20200228213258 8 207 9.7 25.7 0.00 0.00 0.00 14 732.1
20200228212758 10 230 3.2 11.3 0.00 0.00 0.00 13 731.8
20200228212258 8 232 4.8 14.5 0.00 0.00 0.00 13 732.1
20200228211758 8 207 8.0 29.0 0.00 0.00 0.00 13 732.1
20200228211258 8 195 12.9 24.1 0.00 0.00 0.00 11 731.8
20200228210758 7 202 11.3 25.7 0.00 0.00 0.00 12 731.8
20200228210258 8 203 12.9 25.7 0.00 0.00 0.00 12 732.1
20200228205759 8 208 9.7 24.1 0.00 0.00 0.00 13 732.1
20200228205258 8 205 11.3 24.1 0.00 0.00 0.00 11 732.1
20200228204758 8 207 12.9 24.1 0.00 0.00 0.00 10 732.1
20200228204259 8 203 11.3 35.4 0.00 0.00 0.00 12 732.1
20200228203759 8 202 12.9 25.7 0.00 0.00 0.00 13 732.1
20200228203258 7 205 9.7 37.0 0.00 0.00 0.00 12 732.1
20200228202758 8 193 20.9 32.2 0.00 0.00 0.00 10 732.1
20200228202258 7 199 14.5 32.2 0.00 0.00 0.00 12 732.1
20200228201758 8 208 11.3 27.4 0.00 0.00 0.00 11 732.1
20200228201258 8 206 12.9 24.1 0.00 0.00 0.00 11 732.5
20200228200758 7 203 14.5 27.4 0.00 0.00 0.00 11 732.5
20200228200258 7 201 16.1 30.6 0.00 0.00 0.00 11 732.5
20200228195758 7 206 14.5 27.4 0.00 0.00 0.00 11 732.5
20200228195258 7 207 12.9 27.4 0.00 0.00 0.00 11 732.5
20200228194758 7 197 12.9 27.4 0.00 0.00 0.00 12 732.5
20200228194258 7 199 11.3 19.3 0.00 0.00 0.00 13 732.5
20200228193758 7 209 9.7 24.1 0.00 0.00 0.00 12 732.8
20200228193258 7 198 9.7 22.5 0.00 0.00 0.00 14 732.5
20200228192758 7 207 8.0 22.5 0.00 0.00 0.00 15 732.8
20200228192258 7 195 17.7 30.6 0.00 0.00 0.00 14 732.8
20200228191758 7 195 9.7 24.1 0.00 0.00 0.00 15 732.8
20200228191258 7 198 12.9 20.9 0.00 0.00 0.00 15 732.8
20200228190758 7 207 11.3 17.7 0.00 0.00 0.00 12 732.8
20200228190259 7 207 8.0 20.9 0.00 0.00 0.00 13 732.5
20200228185758 6 203 11.3 22.5 0.00 0.00 0.00 13 732.8
20200228185258 6 210 8.0 16.1 0.00 0.00 0.00 13 732.8
20200228184758 6 193 11.3 14.5 0.00 0.00 0.00 13 732.5
20200228184258 5 192 11.3 19.3 0.00 0.00 0.00 13 732.5
20200228183758 5 191 9.7 16.1 0.00 0.00 0.00 14 732.5
20200228183258 5 203 6.4 14.5 0.00 0.00 0.00 14 732.5
20200228182758 5 198 9.7 17.7 0.00 0.00 0.00 13 732.5
20200228182258 5 204 9.7 20.9 0.00 0.00 0.00 13 732.5
20200228181758 5 202 8.0 19.3 0.00 0.00 0.00 15 732.5
20200228181258 5 199 9.7 19.3 0.00 0.00 0.00 14 732.5
20200228180758 5 195 12.9 22.5 0.00 0.00 0.00 13 732.5
20200228180258 5 195 12.9 20.9 0.00 0.00 0.00 14 732.5
20200228175758 5 192 12.9 22.5 0.00 0.00 0.00 14 732.5
20200228175258 5 190 12.9 17.7 0.00 0.00 0.00 14 732.5
20200228174758 5 194 14.5 24.1 0.00 0.00 0.00 13 732.5
20200228174258 5 195 12.9 25.7 0.00 0.00 0.00 13 732.5
20200228173758 5 197 12.9 22.5 0.00 0.00 0.00 14 732.5
20200228173258 5 194 12.9 24.1 0.00 0.00 0.00 15 732.5
20200228172759 5 191 12.9 20.9 0.00 0.00 0.00 15 732.5
20200228172258 5 202 12.9 24.1 0.00 0.00 0.00 14 732.5
20200228171803 5 201 12.9 20.9 0.00 0.00 0.00 14 732.5
20200228171258 5 204 12.9 20.9 0.00 0.00 0.00 14 732.5
20200228170758 5 201 11.3 22.5 0.00 0.00 0.00 14 732.1
20200228170258 5 201 12.9 25.7 0.00 0.00 0.00 14 732.1
20200228165758 5 199 11.3 25.7 0.00 0.00 0.00 15 732.5
20200228165258 5 204 12.9 24.1 0.00 0.00 0.00 14 732.8
20200228164758 5 206 12.9 27.4 0.00 0.00 0.00 13 732.8
20200228164258 6 209 11.3 24.1 0.00 0.00 0.00 14 732.8
20200228163758 6 200 12.9 24.1 0.00 0.00 0.00 14 732.5
20200228163258 6 203 9.7 20.9 0.00 0.00 0.00 15 732.5
20200228162758 5 200 9.7 16.1 0.00 0.00 0.00 14 732.1
20200228162258 5 204 8.0 17.7 0.00 0.00 0.00 14 732.1
20200228161758 5 206 8.0 19.3 0.00 0.00 0.00 14 732.1
20200228161258 5 203 11.3 20.9 0.00 0.00 0.00 14 732.1
20200228160758 5 198 12.9 20.9 0.00 0.00 0.00 14 732.1
20200228160258 4 202 12.9 20.9 0.00 0.00 0.00 14 732.1
20200228155758 4 205 9.7 20.9 0.00 0.00 0.00 14 732.1
20200228155258 4 199 11.3 17.7 0.00 0.00 0.00 15 732.1
20200228154758 4 205 9.7 22.5 0.00 0.00 0.00 15 732.1
20200228154258 4 203 11.3 20.9 0.00 0.00 0.00 15 731.8
20200228153758 4 200 11.3 19.3 0.00 0.00 0.00 15 732.1
20200228153258 4 204 9.7 20.9 0.00 0.00 0.00 14 731.8
20200228152758 4 202 9.7 17.7 0.00 0.00 0.00 14 731.8
20200228152259 4 200 9.7 22.5 0.00 0.00 0.00 14 731.8
20200228151758 4 203 11.3 17.7 0.00 0.00 0.00 14 731.8
20200228151258 4 201 11.3 24.1 0.00 0.00 0.00 14 731.8
20200228150803 4 201 12.9 22.5 0.00 0.00 0.00 13 731.8
20200228150258 4 201 12.9 22.5 0.00 0.00 0.00 13 731.8
20200228145758 4 203 12.9 27.4 0.00 0.00 0.00 14 731.8
20200228145258 4 204 11.3 20.9 0.00 0.00 0.00 13 731.8
20200228144758 4 205 12.9 22.5 0.00 0.00 0.00 13 731.4
20200228144258 4 200 11.3 20.9 0.00 0.00 0.00 13 731.4
20200228143758 4 200 11.3 19.3 0.00 0.00 0.00 13 731.4
20200228143303 4 197 11.3 17.7 0.00 0.00 0.00 13 731.4
20200228142758 4 201 9.7 17.7 0.00 0.00 0.00 13 731.4
20200228142258 4 203 11.3 19.3 0.00 0.00 0.00 12 731.4
20200228141758 3 200 11.3 19.3 0.00 0.00 0.00 12 731.4
20200228141258 3 201 11.3 20.9 0.00 0.00 0.00 12 731.4
20200228140758 3 200 11.3 22.5 0.00 0.00 0.00 12 731.4
20200228140258 3 200 12.9 20.9 0.00 0.00 0.00 12 731.4
20200228135758 3 200 12.9 20.9 0.00 0.00 0.00 11 731.4
20200228135258 3 200 12.9 22.5 0.00 0.00 0.00 11 731.4
20200228134758 3 199 14.5 22.5 0.00 0.00 0.00 11 731.4
20200228134258 3 200 12.9 24.1 0.00 0.00 0.00 11 731.4
20200228133758 3 198 12.9 25.7 0.00 0.00 0.00 11 731.4
20200228133258 3 200 12.9 27.4 0.00 0.00 0.00 11 731.4
20200228132758 3 193 17.7 24.1 0.00 0.00 0.00 11 731.4
20200228132259 3 194 14.5 20.9 0.00 0.00 0.00 10 731.4
20200228131758 3 193 16.1 22.5 0.00 0.00 0.00 10 731.4
20200228131258 3 194 14.5 22.5 0.00 0.00 0.00 10 731.4
20200228130758 4 191 16.1 20.9 0.00 0.00 0.00 9 731.4
20200228130258 3 193 12.9 19.3 0.00 0.00 0.00 10 731.4
20200228125758 3 190 14.5 20.9 0.00 0.00 0.00 10 731.4
20200228125258 3 191 16.1 24.1 0.00 0.00 0.00 10 731.4
20200228124758 4 193 14.5 20.9 0.00 0.00 0.00 10 731.4
20200228124258 4 193 12.9 19.3 0.00 0.00 0.00 10 731.4
20200228123803 4 194 12.9 20.9 0.00 0.00 0.00 10 731.4
20200228123258 4 192 14.5 20.9 0.00 0.00 0.00 10 731.4
20200228122758 4 190 14.5 20.9 0.00 0.00 0.00 10 731.4
20200228122259 4 188 16.1 22.5 0.00 0.00 0.00 10 731.4
20200228121758 4 188 14.5 19.3 0.00 0.00 0.00 9 731.4
20200228121258 4 188 16.1 20.9 0.00 0.00 0.00 9 731.4
20200228120758 4 188 16.1 19.3 0.00 0.00 0.00 9 731.4
20200228120258 4 185 12.9 17.7 0.00 0.00 0.00 9 731.4
20200228115758 4 187 14.5 17.7 0.00 0.00 0.00 9 731.4
20200228115258 4 188 12.9 17.7 0.00 0.00 0.00 9 731.4
20200228114758 4 187 11.3 14.5 0.00 0.00 0.00 9 731.4
20200228114259 4 188 11.3 16.1 0.00 0.00 0.00 9 731.4
20200228113758 4 188 12.9 14.5 0.00 0.00 0.00 9 731.4
20200228113258 4 189 12.9 16.1 0.00 0.00 0.00 9 731.4
20200228112758 4 186 12.9 14.5 0.00 0.00 0.00 9 731.4
20200228112258 4 188 12.9 16.1 0.00 0.00 0.00 9 731.4
20200228111758 4 187 12.9 16.1 0.00 0.00 0.00 9 731.4
20200228111258 4 186 11.3 17.7 0.00 0.00 0.00 9 731.4
20200228110758 4 186 11.3 16.1 0.00 0.00 0.00 9 731.4
20200228110258 4 188 12.9 16.1 0.00 0.00 0.00 9 731.4
20200228105758 4 189 12.9 16.1 0.00 0.00 0.00 9 731.8
20200228105258 5 189 11.3 14.5 0.00 0.00 0.00 9 731.8
20200228104758 5 189 11.3 16.1 0.00 0.00 0.00 9 731.8
20200228104258 5 189 12.9 17.7 0.00 0.00 0.00 10 731.8
20200228103758 5 188 11.3 17.7 0.00 0.00 0.00 9 731.8
20200228103258 5 188 12.9 16.1 0.00 0.00 0.00 8 732.1
20200228102758 5 188 11.3 16.1 0.00 0.00 0.00 8 732.1
20200228102258 4 183 11.3 16.1 0.00 0.00 0.00 8 732.1
20200228101759 5 183 9.7 14.5 0.00 0.00 0.00 8 732.1
20200228101258 5 186 8.0 12.9 0.00 0.00 0.00 8 732.1
20200228100758 5 180 8.0 12.9 0.00 0.00 0.00 8 732.1
20200228100303 5 173 9.7 12.9 0.00 0.00 0.00 7 732.1
20200228095758 5 178 6.4 9.7 0.00 0.00 0.00 7 732.1
20200228095258 5 174 6.4 8.0 0.00 0.00 0.00 7 732.1
20200228094758 5 171 8.0 11.3 0.00 0.00 0.00 7 732.1
20200228094258 5 173 8.0 9.7 0.00 0.00 0.00 8 732.1
20200228093758 4 175 6.4 8.0 0.00 0.00 0.00 8 732.1
20200228093258 3 166 4.8 6.4 0.00 0.00 0.00 9 732.1
20200228092758 3 126 0.0 3.2 0.00 0.00 0.00 9 732.1
20200228092258 3 43 1.6 3.2 0.00 0.00 0.00 8 732.1
20200228091258 3 4 3.2 4.8 0.00 0.00 0.00 9 732.1
20200228090758 3 43 1.6 4.8 0.00 0.00 0.00 9 732.5
20200228090258 3 88 3.2 8.0 0.00 0.00 0.00 9 732.5
20200228085758 3 86 4.8 8.0 0.00 0.00 0.00 9 732.5
20200228085258 3 36 3.2 6.4 0.00 0.00 0.00 10 732.5
20200228084758 3 46 6.4 8.0 0.00 0.00 0.00 10 732.5
20200228084258 3 35 6.4 11.3 0.00 0.00 0.00 11 732.5
20200228083758 3 27 4.8 14.5 0.00 0.00 0.00 11 732.5
20200228083259 3 17 11.3 16.1 0.00 0.00 0.00 12 732.5
20200228082758 3 45 6.4 12.9 0.00 0.00 0.00 12 732.5
20200228082258 3 22 6.4 16.1 0.00 0.00 0.00 12 732.5
20200228081758 3 19 9.7 17.7 0.00 0.00 0.00 12 732.5
20200228081258 3 16 9.7 19.3 0.00 0.00 0.00 12 732.5
20200228080758 3 13 6.4 16.1 0.00 0.00 0.00 13 732.5
20200228080258 2 12 6.4 14.5 0.00 0.00 0.00 12 732.5
20200228075758 2 24 9.7 27.4 0.00 0.00 0.00 13 732.5
20200228075312 2 14 14.5 27.4 0.00 0.00 0.00 13 732.5
20200228074758 2 9 14.5 24.1 0.00 0.00 0.00 13 732.5
20200228074258 2 25 12.9 27.4 0.00 0.00 0.00 14 732.5
20200228073758 2 8 16.1 25.7 0.00 0.00 0.00 14 732.1
20200228073258 2 11 20.9 29.0 0.00 0.00 0.00 14 732.1
20200228072759 2 2 14.5 24.1 0.00 0.00 0.00 14 732.5
20200228072258 2 7 11.3 22.5 0.00 0.00 0.00 14 732.5
20200228071804 2 8 12.9 25.7 0.00 0.00 0.00 14 732.5
20200228071258 2 4 9.7 19.3 0.00 0.00 0.00 14 732.5
20200228070758 2 8 12.9 22.5 0.00 0.00 0.00 14 732.5
20200228070303 2 7 11.3 22.5 0.00 0.00 0.00 14 732.5
20200228065758 2 10 14.5 22.5 0.00 0.00 0.00 14 732.8
20200228065258 2 7 14.5 25.7 0.00 0.00 0.00 15 732.8
20200228064758 3 10 17.7 24.1 0.00 0.00 0.00 14 732.8
20200228064303 3 13 16.1 22.5 0.00 0.00 0.00 14 732.8
20200228063758 3 7 16.1 24.1 0.00 0.00 0.00 14 732.8
20200228063258 3 7 14.5 20.9 0.00 0.00 0.00 14 732.8
20200228062758 3 6 14.5 22.5 0.00 0.00 0.00 13 733.1
20200228062258 3 13 14.5 20.9 0.00 0.00 0.00 13 733.1
20200228061758 3 6 12.9 24.1 0.00 0.00 0.00 13 733.1
20200228061258 3 13 12.9 24.1 0.00 0.00 0.00 13 733.1
20200228060758 3 3 11.3 20.9 0.00 0.00 0.00 13 733.1
20200228060301 3 3 11.3 19.3 0.00 0.00 0.00 13 733.1
20200228055758 3 353 11.3 20.9 0.00 0.00 0.00 12 733.1
20200228055258 3 6 11.3 19.3 0.00 0.00 0.00 13 733.1
20200228054758 3 9 11.3 20.9 0.00 0.00 0.00 13 733.1
20200228054258 3 13 14.5 24.1 0.00 0.00 0.00 12 733.1